Regional Weather Roundup
Issued by NWS Cleveland, OH

Home | Current Version | Previous Version | Graphics & Text | Print | Product List | Glossary On
Versions: 1 2 3 4 5 6 7 8 9 10 11 12 13 14 15 16 17 18 19 20 21 22 23 24 25 26 27 28 29 30 31 32 33 34 35 36 37 38 39 40 41 42 43 44 45 46 47 48 49 50
400
ASUS41 KCLE 252312
RWRCLE
OHIO REGIONAL WEATHER ROUNDUP
NATIONAL WEATHER SERVICE WILMINGTON, OH
700 PM EDT THU MAY 25 2017

NOTE: "FAIR" INDICATES FEW OR NO CLOUDS BELOW 12,000 FEET WITH NO
SIGNIFICANT WEATHER AND/OR OBSTRUCTIONS TO VISIBILITY.

OHZ001>008-015>018-024>027-034-035-043-044-260000-
   NORTHWEST OHIO

CITY           SKY/WX    TMP DP  RH WIND       PRES   REMARKS
DEFIANCE       CLOUDY    62  56  80 NW9       29.57R
FINDLAY        CLOUDY    65  56  72 NW10      29.54R
TOLEDO EXPRESS CLOUDY    62  58  86 NW12      29.54R
TOLEDO EXEC    CLOUDY    64  59  83 NW12      29.53R
LIMA           CLOUDY    62  60  93 NW15      29.56R
$$

OHZ009>014-019>023-028>033-038-089-260000-
   NORTHEAST OHIO

CITY           SKY/WX    TMP DP  RH WIND       PRES   REMARKS
CLE-HOPKINS    LGT RAIN  62  58  86 CALM      29.52R
CLE-LAKEFRONT  LGT RAIN  59  54  83 S7        29.49R
CUY CO. ARPT   LGT RAIN  59  57  94 MISG      29.50R FOG
LORAIN-ELYRIA  CLOUDY    60  55  83 SW3       29.50
ASHTABULA      CLOUDY    59  58  96 W7        29.50R
AKRON-CANTON   LGT RAIN  60  56  86 SW5       29.51R FOG
WOOSTER        LGT RAIN  60  58  92 SW5       29.52R
MANSFIELD      CLOUDY    61  59  93 CALM      29.52R
YOUNGSTOWN     LGT RAIN  61  54  77 W13       29.50R
$$

OHZ042-051>053-060>062-070>072-077>081-260000-
  SOUTHWEST OHIO

CITY           SKY/WX    TMP DP  RH WIND       PRES   REMARKS
CINC-COVINGTON CLOUDY    62  58  86 W8        29.64R
CINC-LUNKEN    CLOUDY    64  58  80 W9G17     29.64R
HAMILTON       CLOUDY    64  57  78 W13G21    29.64R
DAYTON         CLOUDY    61  59  93 NW14      29.60R
WRIGHT-PAT AFB CLOUDY    63  63 100 W13       29.58R
DAYTON GENERAL CLOUDY    61  57  87 W14G23    29.60R
WILMINGTON     CLOUDY    61  60  97 W16       29.58R
$$

OHZ036-037-039>041-045>050-054>059-063>069-073>076-082>088-260000-
  CENTRAL AND SOUTHEAST OHIO

CITY           SKY/WX    TMP DP  RH WIND       PRES   REMARKS
COLUMBUS       LGT RAIN  63  59  87 SW3       29.52R
OSU AIRPORT    RAIN      63  62  97 W9G16     29.52R FOG
BOLTON FIELD   CLOUDY    64  61  88 NW5       29.53R
RICKENBACK AFB LGT RAIN  62  61  96 CALM      29.53R
NEWARK         RAIN      63  59  87 W9        29.51R FOG
MARION         CLOUDY    63  57  81 NW6       29.53R
LANCASTER      CLOUDY    65  59  81 S7        29.52R
ZANESVILLE     LGT RAIN  63  59  87 SW5       29.52R
NEW PHILLY     LGT RAIN  60  58  92 SW3       29.52R
$$




USA.gov is the U.S. government's official web portal to all federal, state and local government web resources and services.